Location: Baili�vre
(50.0696°N, 4.2409°E)
Time: 02:22:25
(UTC+00:00)

Cosmos 1743 Rocket - Pass Details

Date: 08 August 2020
Orbit: 603 x 634 km, 82.6° (Epoch: 25 September)

Event Time Altitude Azimuth Distance (km) Brightness Sun altitude
Rises 19:49:13 0° 191° (SSW) 2,898 6.8 -5.8°
Reaches altitude 10° 19:51:26 10° 193° (SSW) 2,000 6.0 -6.1°
Maximum altitude 19:55:53 79° 280° (W) 649 3.8 -6.7°
Drops below altitude 10° 20:00:24 10° 8° (N) 2,029 6.6 -7.3°
Sets 20:02:39 0° 10° (N) 2,943 7.4 -7.6°
